Ridgedale, MO

9:33 AM CDT on July 25, 2016 (GMT -0500)
Branson

Weather History for KBBG - February, 2013

Change the Weather History Date:

Sunday, February 10, 2013

  Actual Average (KHRO) Record (KHRO)
Temperature  
Mean Temperature 48 °F 39 °F  
Max Temperature 60 °F 50 °F 79 °F (1922)
Min Temperature 37 °F 29 °F -17 °F (1929)
Degree Days  
Heating Degree Days 16 26  
Month to date heating degree days 265  
Since 1 July heating degree days 2751  
Cooling Degree Days 0 0  
Month to date cooling degree days 0  
Year to date cooling degree days 0  
Moisture  
Dew Point 34 °F    
Average Humidity 69    
Maximum Humidity 100    
Minimum Humidity 27    
Precipitation  
Precipitation 0.51 in 0.09 in 1.91 in (1966)
Month to date precipitation 0.89  
Year to date precipitation 3.45  
Snow  
Snow 0.00 in 0.10 in 3.50 in (1986)
Month to date snowfall 1.4  
Since 1 July snowfall 7.4  
Snow Depth -    
Sea Level Pressure  
Sea Level Pressure 29.82 in    
Wind  
Wind Speed 11 mph (SSW)    
Max Wind Speed 20 mph    
Max Gust Speed 31 mph    
Visibility 6 miles    
Events Rain , Thunderstorm    
T = Trace of Precipitation, MM = Missing Value Source: NWS Daily Summary

Daily Weather History Graph

Daily Weather History Graph

Search for Another Location

Airport or City:

Trip Planner

Search our weather history database for the weather conditions in past years. The results will help you decide how hot, cold, wet, or windy it might be!

Date:

Astronomy

Feb. 10, 2013 Rise Set
Actual Time 7:05 AM CST 5:48 PM CST
Civil Twilight 6:39 AM CST 6:15 PM CST
Nautical Twilight 6:08 AM CST 6:45 PM CST
Astronomical Twilight 5:38 AM CST 7:15 PM CST
Moon 6:58 AM CST (2/10) 6:37 PM CST (2/10)
Length of Visible Light 11h 36m
Length of Day
10h 42m
New Moon, 0% of the Moon is Illuminated
Feb 10
New Moon
Feb 17
First Quarter
Feb 25
Full
Mar 4
Last Quarter
Mar 11
New

Hourly Weather History & Observations

Time (CST) Temp. Windchill Dew Point Humidity Pressure Visibility Wind Dir Wind Speed Gust Speed Precip Events Conditions
12:15 AM 37.4 °F 29.3 °F 35.6 °F 93% 29.89 in 4.0 mi ESE 12.7 mph - N/A   Overcast
12:35 AM 37.4 °F 29.3 °F 35.6 °F 93% 29.88 in 2.5 mi ESE 12.7 mph - N/A   Overcast
12:55 AM 37.4 °F 30.3 °F 37.4 °F 100% 29.88 in 3.0 mi SE 10.4 mph - N/A   Overcast
1:15 AM 39.2 °F 32.5 °F 37.4 °F 93% 29.87 in 3.0 mi SE 10.4 mph - N/A   Mostly Cloudy
1:35 AM 39.2 °F 32.5 °F 37.4 °F 93% 29.85 in 2.5 mi SE 10.4 mph - N/A   Mostly Cloudy
1:55 AM 39.2 °F 32.5 °F 39.2 °F 100% 29.84 in 2.5 mi ESE 10.4 mph - N/A   Overcast
2:15 AM 39.2 °F 33.6 °F 39.2 °F 100% 29.82 in 1.5 mi ESE 8.1 mph - N/A   Overcast
2:35 AM 39.2 °F 32.5 °F 39.2 °F 100% 29.79 in 1.2 mi ESE 10.4 mph - N/A   Overcast
2:55 AM 39.2 °F 32.5 °F 39.2 °F 100% 29.77 in 1.2 mi SE 10.4 mph - N/A   Overcast
3:15 AM 39.2 °F 32.5 °F 39.2 °F 100% 29.75 in 1.2 mi ESE 10.4 mph - N/A   Overcast
3:35 AM 39.2 °F 33.6 °F 39.2 °F 100% 29.74 in 1.2 mi ESE 8.1 mph - N/A   Overcast
3:55 AM 39.2 °F 37.0 °F 39.2 °F 100% 29.77 in 1.2 mi NNE 3.5 mph - N/A   Overcast
4:15 AM 39.2 °F 35.0 °F 39.2 °F 100% 29.77 in 0.8 mi East 5.8 mph - N/A   Overcast
4:35 AM 39.2 °F 33.0 °F 39.2 °F 100% 29.75 in 0.8 mi ESE 9.2 mph - N/A Rain , Thunderstorm Light Thunderstorms and Rain
4:55 AM 39.2 °F 35.0 °F 39.2 °F 100% 29.78 in 0.8 mi North 5.8 mph - 0.36 in Rain , Thunderstorm Heavy Thunderstorms and Rain
5:15 AM 39.2 °F 35.9 °F 39.2 °F 100% 29.79 in 1.0 mi ESE 4.6 mph - 0.15 in Rain , Thunderstorm Rain
6:50 AM 41.0 °F 33.1 °F 41.0 °F 100% 29.72 in 0.8 mi SE 15.0 mph 19.6 mph N/A Rain , Thunderstorm Light Thunderstorms and Rain
7:45 AM 46.4 °F 39.8 °F 46.4 °F 100% 29.68 in 10.0 mi SE 16.1 mph - N/A   Overcast
8:45 AM 48.2 °F - 48.2 °F 100% 29.70 in 2.0 mi SSE 10.4 mph - N/A Rain Light Rain
9:45 AM 50.0 °F - 50.0 °F 100% 29.70 in 10.0 mi SSE 6.9 mph - N/A   Overcast
10:52 AM 57.2 °F - 50.0 °F 77% 29.69 in 10.0 mi SW 16.1 mph 24.2 mph N/A   Mostly Cloudy
11:47 AM 59.0 °F - 41.0 °F 51% 29.69 in 10.0 mi SW 19.6 mph 29.9 mph N/A   Scattered Clouds
12:45 PM 59.0 °F - 35.6 °F 42% 29.67 in 10.0 mi SW 13.8 mph 24.2 mph N/A   Scattered Clouds
1:45 PM 60.8 °F - 28.4 °F 29% 29.66 in 10.0 mi WSW 15.0 mph 24.2 mph N/A   Scattered Clouds
2:48 PM 60.8 °F - 26.6 °F 27% 29.69 in 10.0 mi West 17.3 mph 27.6 mph N/A   Scattered Clouds
3:51 PM 59.0 °F - 24.8 °F 27% 29.72 in 10.0 mi WSW 19.6 mph 31.1 mph N/A   Partly Cloudy
4:46 PM 57.2 °F - 24.8 °F 29% 29.75 in 10.0 mi West 17.3 mph 26.5 mph N/A   Partly Cloudy
5:45 PM 55.4 °F - 24.8 °F 31% 29.78 in 10.0 mi WSW 9.2 mph 18.4 mph N/A   Partly Cloudy
6:45 PM 53.6 °F - 26.6 °F 35% 29.81 in 10.0 mi SW 6.9 mph - N/A   Partly Cloudy
7:55 PM 50.0 °F - 26.6 °F 40% 29.85 in 10.0 mi WSW 6.9 mph - N/A   Partly Cloudy
8:15 PM 50.0 °F - 26.6 °F 40% 29.86 in 10.0 mi WSW 9.2 mph - N/A   Clear
8:35 PM 50.0 °F - 26.6 °F 40% 29.88 in 10.0 mi West 10.4 mph 16.1 mph N/A   Clear
8:45 PM 50.0 °F - 26.6 °F 40% 29.88 in 10.0 mi West 11.5 mph 18.4 mph N/A   Partly Cloudy
8:55 PM 50.0 °F - 24.8 °F 37% 29.89 in 10.0 mi West 9.2 mph 21.9 mph N/A   Clear
9:15 PM 50.0 °F - 24.8 °F 37% 29.91 in 10.0 mi WNW 15.0 mph 24.2 mph N/A   Clear
9:35 PM 48.2 °F - 26.6 °F 43% 29.93 in 10.0 mi WNW 16.1 mph 31.1 mph N/A   Clear
10:15 PM 44.6 °F 38.4 °F 24.8 °F 46% 29.98 in 10.0 mi WNW 12.7 mph 29.9 mph N/A   Clear
10:35 PM 42.8 °F 37.0 °F 24.8 °F 49% 29.99 in 10.0 mi WNW 10.4 mph 19.6 mph N/A   Clear
10:55 PM 42.8 °F 37.5 °F 24.8 °F 49% 29.99 in 10.0 mi West 9.2 mph 21.9 mph N/A   Clear
11:15 PM 42.8 °F 37.0 °F 23.0 °F 46% 30.00 in 10.0 mi West 10.4 mph 20.7 mph N/A   Clear
11:35 PM 41.0 °F 34.7 °F 23.0 °F 49% 30.01 in 10.0 mi WNW 10.4 mph 21.9 mph N/A   Clear
11:55 PM 41.0 °F 35.2 °F 24.8 °F 53% 30.02 in 10.0 mi West 9.2 mph 24.2 mph N/A   Clear